H1 CPF 2 NER 2022 6 21 9 172 01 glonass127 H2 1106403 9127 37869 2022 6 21 0 0 0 2022 6 24 23 45 0 900 1 1 0 0 0 1 H9 10 0 59751 0.00000 0 18398712.378 16096548.081 -7182431.260 10 0 59751 900.00000 0 17546834.256 15419875.961 -10159219.462 10 0 59751 1800.00000 0 16332280.334 14644184.012 -12937834.634 10 0 59751 2700.00000 0 14764192.399 13828180.207 -15463921.280 10 0 59751 3600.00000 0 12864787.364 13029171.642 -17688018.382 10 0 59751 4500.00000 0 10668670.243 12300515.030 -19566550.582 10 0 59751 5400.00000 0 8221628.398 11689249.035 -21062702.968 10 0 59751 6300.00000 0 5578956.430 11234011.016 -22147160.472 10 0 59751 7200.00000 0 2803381.596 10963328.588 -22798695.761 10 0 59751 8100.00000 0 -37322.908 10894360.057 -23004593.074 10 0 59751 9000.00000 0 -2872936.028 11032138.164 -22760899.064 10 0 59751 9900.00000 0 -5633488.197 11369349.568 -22072495.642 10 0 59751 10800.00000 0 -8251947.851 11886659.067 -20952993.788 10 0 59751 11700.00000 0 -10666781.726 12553563.781 -19424451.234 10 0 59751 12600.00000 0 -12824281.255 13329739.547 -17516920.791 10 0 59751 13500.00000 0 -14680557.937 14166820.515 -15267839.690 10 0 59751 14400.00000 0 -16203125.149 15010534.462 -12721273.637 10 0 59751 15300.00000 0 -17372001.870 15803101.249 -9927032.289 10 0 59751 16200.00000 0 -18180294.702 16485791.097 -6939675.386 10 0 59751 17100.00000 0 -18634236.981 17001532.998 -3817430.708 10 0 59751 18000.00000 0 -18752686.914 17297462.187 -621046.689 10 0 59751 18900.00000 0 -18566109.582 17327298.891 2587396.710 10 0 59751 19800.00000 0 -18115089.150 17053458.482 5745694.967 10 0 59751 20700.00000 0 -17448436.845 16448805.234 8792719.906 10 0 59751 21600.00000 0 -16620976.595 15497977.425 11669591.701 10 0 59751 22500.00000 0 -15691102.755 14198229.845 14320800.157 10 0 59751 23400.00000 0 -14718212.910 12559760.141 16695255.033 10 0 59751 24300.00000 0 -13760122.922 10605506.731 18747247.170 10 0 59751 25200.00000 0 -12870571.183 8370427.522 20437304.172 10 0 59751 26100.00000 0 -12096914.619 5900289.669 21732926.588 10 0 59751 27000.00000 0 -11478110.507 3250019.902 22609192.850 10 0 59751 27900.00000 0 -11043066.171 481682.316 23049223.440 10 0 59751 28800.00000 0 -10809423.508 -2337834.842 23044496.987 10 0 59751 29700.00000 0 -10782827.704 -5139330.537 22595013.229 10 0 59751 30600.00000 0 -10956710.072 -7853899.765 21709299.996 10 0 59751 31500.00000 0 -11312594.354 -10415535.052 20404263.518 10 0 59751 32400.00000 0 -11820914.813 -12763615.913 18704883.745 10 0 59751 33300.00000 0 -12442313.758 -14845185.551 16643758.565 10 0 59751 34200.00000 0 -13129366.496 -16616921.893 14260503.390 10 0 59751 35100.00000 0 -13828663.930 -18046721.839 11601015.009 10 0 59751 36000.00000 0 -14483167.705 -19114832.590 8716611.214 10 0 59751 36900.00000 0 -15034740.754 -19814481.844 5663060.405 10 0 59751 37800.00000 0 -15426747.827 -20151978.885 2499517.887 10 0 59751 38700.00000 0 -15606616.492 -20146280.384 -712612.038 10 0 59751 39600.00000 0 -15528249.670 -19828037.037 -3910866.744 10 0 59751 40500.00000 0 -15154185.929 -19238159.335 -7032945.629 10 0 59751 41400.00000 0 -14457413.475 -18425961.546 -10017935.720 10 0 59751 42300.00000 0 -13422757.914 -17446961.534 -12807517.169 10 0 59751 43200.00000 0 -12047781.447 -16360429.415 -15347123.406 10 0 59751 44100.00000 0 -10343151.918 -15226789.509 -17587031.138 10 0 59751 45000.00000 0 -8332462.879 -14104986.879 -19483356.604 10 0 59751 45900.00000 0 -6051509.525 -13049931.808 -20998936.478 10 0 59751 46800.00000 0 -3547049.040 -12110132.367 -22104074.243 10 0 59751 47700.00000 0 -875096.382 -11325617.304 -22777135.833 10 0 59751 48600.00000 0 1901173.190 -10726238.798 -23004981.752 10 0 59751 49500.00000 0 4713826.544 -10330428.026 -22783226.602 10 0 59751 50400.00000 0 7492778.348 -10144456.681 -22116320.756 10 0 59751 51300.00000 0 10168489.773 -10162235.379 -21017452.973 10 0 59751 52200.00000 0 12674646.138 -10365656.433 -19508276.633 10 0 59751 53100.00000 0 14950700.487 -10725464.852 -17618466.176 10 0 59751 54000.00000 0 16944176.379 -11202618.445 -15385113.943 10 0 59751 54900.00000 0 18612633.837 -11750077.013 -12851980.961 10 0 59751 55800.00000 0 19925217.228 -12314942.309 -10068618.260 10 0 59751 56700.00000 0 20863722.227 -12840855.782 -7089377.843 10 0 59751 57600.00000 0 21423139.797 -13270550.640 -3972334.414 10 0 59751 58500.00000 0 21611657.564 -13548448.803 -778140.628 10 0 59751 59400.00000 0 21450122.097 -13623192.197 2431160.560 10 0 59751 60300.00000 0 20970988.195 -13450001.423 5593342.534 10 0 59751 61200.00000 0 20216802.534 -12992762.904 8647196.774 10 0 59751 62100.00000 0 19238288.014 -12225757.795 11533706.779 10 0 59751 63000.00000 0 18092111.045 -11134961.415 14197172.329 10 0 59751 63900.00000 0 16838426.319 -9718860.345 16586263.733 10 0 59751 64800.00000 0 15538301.868 -7988754.404 18654987.736 10 0 59751 65700.00000 0 14251131.158 -5968531.908 20363548.738 10 0 59751 66600.00000 0 13032138.702 -3693928.003 21679091.126 10 0 59751 67500.00000 0 11930081.089 -1211296.554 22576310.897 10 0 59751 68400.00000 0 10985236.872 1424054.674 23037926.910 10 0 59751 69300.00000 0 10227766.822 4149898.450 23055004.352 10 0 59751 70200.00000 0 9676510.914 6899410.557 22627125.282 10 0 59751 71100.00000 0 9338270.860 9603687.333 21762403.244 10 0 59751 72000.00000 0 9207607.651 12194357.240 20477341.211 10 0 59751 72900.00000 0 9267162.865 14606181.509 18796534.364 10 0 59751 73800.00000 0 9488491.479 16779538.808 16752221.548 10 0 59751 74700.00000 0 9833373.133 18662692.715 14383691.689 10 0 59751 75600.00000 0 10255549.047 20213748.998 11736553.997 10 0 59751 76500.00000 0 10702813.942 21402221.337 8861883.302 10 0 59751 77400.00000 0 11119376.974 22210139.451 5815254.634 10 0 59751 78300.00000 0 11448393.683 22632651.810 2655683.635 10 0 59751 79200.00000 0 11634562.759 22678095.690 -555508.196 10 0 59751 80100.00000 0 11626677.648 22367529.305 -3755882.099 10 0 59751 81000.00000 0 11380023.789 21733743.518 -6883101.464 10 0 59751 81900.00000 0 10858517.814 20819792.856 -9876157.696 10 0 59751 82800.00000 0 10036495.239 19677106.455 -12676577.239 10 0 59751 83700.00000 0 8900067.537 18363258.098 -15229584.463 10 0 59751 84600.00000 0 7447987.512 16939489.699 -17485195.635 10 0 59751 85500.00000 0 5691982.957 15468093.751 -19399220.251 10 0 59752 0.00000 0 3656541.570 14009766.954 -20934147.942 10 0 59752 900.00000 0 1378152.595 12621047.831 -22059902.358 10 0 59752 1800.00000 0 -1095961.705 11351950.448 -22754443.704 10 0 59752 2700.00000 0 -3709575.888 10243893.255 -23004209.712 10 0 59752 3600.00000 0 -6399577.247 9328013.727 -22804383.626 10 0 59752 4500.00000 0 -9098379.382 8623939.822 -22158984.659 10 0 59752 5400.00000 0 -11736531.130 8139070.122 -21080779.342 10 0 59752 6300.00000 0 -14245410.346 7868392.094 -19591016.286 10 0 59752 7200.00000 0 -16559888.546 7794844.514 -17718990.739 10 0 59752 8100.00000 0 -18620854.101 7890206.398 -15501448.967 10 0 59752 9000.00000 0 -20377488.133 8116472.109 -12981845.825 10 0 59752 9900.00000 0 -21789198.189 8427651.577 -10209472.006 10 0 59752 10800.00000 0 -22827130.015 8771916.547 -7238469.904 10 0 59752 11700.00000 0 -23475196.086 9093999.490 -4126759.167 10 0 59752 12600.00000 0 -23730580.416 9337741.593 -934894.604 10 0 59752 13500.00000 0 -23603701.661 9448680.664 2275119.989 10 0 59752 14400.00000 0 -23117639.400 9376568.926 5441038.152 10 0 59752 15300.00000 0 -22307050.902 9077714.479 8501573.367 10 0 59752 16200.00000 0 -21216626.694 8517048.487 11397574.909 10 0 59752 17100.00000 0 -19899151.848 7669832.269 14073155.055 10 0 59752 18000.00000 0 -18413255.529 6522934.121 16476747.221 10 0 59752 18900.00000 0 -16820943.383 5075623.822 18562076.581 10 0 59752 19800.00000 0 -15185015.248 3339852.792 20289026.742 10 0 59752 20700.00000 0 -13566474.609 1340008.945 21624388.170 10 0 59752 21600.00000 0 -12022035.682 -887843.573 22542476.419 10 0 59752 22500.00000 0 -10601829.434 -3297209.007 23025610.418 10 0 59752 23400.00000 0 -9347401.502 -5832838.890 23064443.279 10 0 59752 24300.00000 0 -8290082.879 -8432778.027 22658140.381 10 0 59752 25200.00000 0 -7449799.279 -11030695.743 21814401.609 10 0 59752 26100.00000 0 -6834367.571 -13558408.995 20549326.902 10 0 59752 27000.00000 0 -6439308.201 -15948496.062 18887126.509 10 0 59752 27900.00000 0 -6248181.846 -18136895.386 16859679.650 10 0 59752 28800.00000 0 -6233437.457 -20065383.934 14505947.787 10 0 59752 29700.00000 0 -6357737.896 -21683833.578 11871251.187 10 0 59752 30600.00000 0 -6575709.534 -22952152.145 9006420.000 10 0 59752 31500.00000 0 -6836044.318 -23841827.628 5966833.857 10 0 59752 32400.00000 0 -7083867.340 -24337009.817 2811366.427 10 0 59752 33300.00000 0 -7263271.080 -24435081.995 -398746.165 10 0 59752 34200.00000 0 -7319909.425 -24146696.328 -3601091.821 10 0 59752 35100.00000 0 -7203540.967 -23495268.912 -6733300.936 10 0 59752 36000.00000 0 -6870412.210 -22515953.405 -9734272.499 10 0 59752 36900.00000 0 -6285377.244 -21254134.590 -12545382.580 10 0 59752 37800.00000 0 -5423660.961 -19763504.190 -15111649.900 10 0 59752 38700.00000 0 -4272187.638 -18103799.628 -17382833.646 10 0 59752 39600.00000 0 -2830415.161 -16338301.508 -19314439.784 10 0 59752 40500.00000 0 -1110636.326 -14531196.375 -20868614.057 10 0 59752 41400.00000 0 862268.358 -12744917.459 -22014902.247 10 0 59752 42300.00000 0 3051617.945 -11037577.319 -22730861.154 10 0 59752 43200.00000 0 5410226.627 -9460602.255 -23002507.204 10 0 59752 44100.00000 0 7882153.592 -8056669.565 -22824593.174 10 0 59752 45000.00000 0 10404833.353 -6858035.407 -22200707.437 10 0 59752 45900.00000 0 12911496.348 -5885323.826 -21143194.088 10 0 59752 46800.00000 0 15333777.100 -5146827.245 -19672896.250 10 0 59752 47700.00000 0 17604399.265 -4638346.438 -17818728.772 10 0 59752 48600.00000 0 19659823.921 -4343574.408 -15617090.153 10 0 59752 49500.00000 0 21442749.423 -4235005.152 -13111126.924 10 0 59752 50400.00000 0 22904357.833 -4275325.749 -10349866.817 10 0 59752 51300.00000 0 24006214.400 -4419229.640 -7387239.592 10 0 59752 52200.00000 0 24721741.827 -4615571.331 -4281006.460 10 0 59752 53100.00000 0 25037209.506 -4809768.751 -1091620.779 10 0 59752 54000.00000 0 24952198.949 -4946349.620 2118956.528 10 0 59752 54900.00000 0 24479528.879 -4971532.897 5288462.840 10 0 59752 55800.00000 0 23644646.218 -4835735.821 8355537.152 10 0 59752 56700.00000 0 22484511.394 -4495901.049 11260897.748 10 0 59752 57600.00000 0 21046027.036 -3917546.748 13948472.271 10 0 59752 58500.00000 0 19384077.456 -3076454.794 16366459.698 10 0 59752 59400.00000 0 17559261.665 -1959927.713 18468305.648 10 0 59752 60300.00000 0 15635414.306 -567563.089 20213574.528 10 0 59752 61200.00000 0 13677016.803 1088485.879 21568704.053 10 0 59752 62100.00000 0 11746604.641 2983774.133 22507630.109 10 0 59752 63000.00000 0 9902276.126 5082342.260 23012272.077 10 0 59752 63900.00000 0 8195403.541 7337976.529 23072870.994 10 0 59752 64800.00000 0 6668639.057 9695901.186 22688175.176 10 0 59752 65700.00000 0 5354295.872 12094835.470 21865470.099 10 0 59752 66600.00000 0 4273170.117 14469333.038 20620451.569 10 0 59752 67500.00000 0 3433851.476 16752310.079 18976943.469 10 0 59752 68400.00000 0 2832550.984 18877660.245 16966463.682 10 0 59752 69300.00000 0 2453453.812 20782850.331 14627644.248 10 0 59752 70200.00000 0 2269583.509 22411390.615 12005514.318 10 0 59752 71100.00000 0 2244143.150 23715077.907 9150657.029 10 0 59752 72000.00000 0 2332278.967 24655917.573 6118254.128 10 0 59752 72900.00000 0 2483193.958 25207643.180 2967034.717 10 0 59752 73800.00000 0 2642523.599 25356768.277 -241853.111 10 0 59752 74700.00000 0 2754873.969 25103123.693 -3446026.594 10 0 59752 75600.00000 0 2766414.660 24459855.062 -6583085.758 10 0 59752 76500.00000 0 2627415.539 23452877.934 -9591839.683 10 0 59752 77400.00000 0 2294617.890 22119811.011 -12413516.403 10 0 59752 78300.00000 0 1733336.732 20508430.611 -14992931.119 10 0 59752 79200.00000 0 919201.978 18674710.358 -17279587.846 10 0 59752 80100.00000 0 -160538.668 16680528.441 -19228690.697 10 0 59752 81000.00000 0 -1506213.595 14591139.487 -20802042.862 10 0 59752 81900.00000 0 -3105455.034 12472518.570 -21968813.758 10 0 59752 82800.00000 0 -4933474.505 10388690.715 -22706157.632 10 0 59752 83700.00000 0 -6953876.063 8399159.851 -22999670.325 10 0 59752 84600.00000 0 -9119973.946 6556546.798 -22843674.563 10 0 59752 85500.00000 0 -11376559.202 4904536.723 -22241327.924 10 0 59753 0.00000 0 -13662040.257 3476222.878 -21204551.805 10 0 59753 900.00000 0 -15910867.673 2292915.107 -19753782.847 10 0 59753 1800.00000 0 -18056136.786 1363463.967 -17917554.341 10 0 59753 2700.00000 0 -20032261.777 684124.241 -15731915.419 10 0 59753 3600.00000 0 -21777604.737 238962.790 -13239702.391 10 0 59753 4500.00000 0 -23236949.967 789.512 -10489677.924 10 0 59753 5400.00000 0 -24363719.446 -67431.297 -7535556.906 10 0 59753 6300.00000 0 -25121837.192 -10752.280 -4434939.813 10 0 59753 7200.00000 0 -25487165.678 119922.520 -1248176.204 10 0 59753 8100.00000 0 -25448456.121 270245.896 1962818.224 10 0 59753 9000.00000 0 -25007775.335 384974.717 5135767.074 10 0 59753 9900.00000 0 -24180394.039 410547.524 8209237.252 10 0 59753 10800.00000 0 -22994144.102 297583.460 11123818.450 10 0 59753 11700.00000 0 -21488274.048 3197.709 13823256.050 10 0 59753 12600.00000 0 -19711852.585 -506962.867 16255516.886 10 0 59753 13500.00000 0 -17721787.899 -1257047.968 18373769.196 10 0 59753 14400.00000 0 -15580545.463 -2259764.533 20137260.150 10 0 59753 15300.00000 0 -13353658.682 -3515620.370 21512076.422 10 0 59753 16200.00000 0 -11107134.282 -5012681.506 22471775.631 10 0 59753 17100.00000 0 -8904857.889 -6726853.235 22997878.689 10 0 59753 18000.00000 0 -6806104.838 -8622673.750 23080215.298 10 0 59753 18900.00000 0 -4863256.585 -10654588.901 22717117.131 10 0 59753 19800.00000 0 -3119814.701 -12768657.343 21915455.358 10 0 59753 20700.00000 0 -1608792.713 -14904618.035 20690521.457 10 0 59753 21600.00000 0 -351550.892 -16998237.363 19065752.458 10 0 59753 22500.00000 0 642878.350 -18983841.504 17072304.128 10 0 59753 23400.00000 0 1377946.310 -20796931.460 14748478.013 10 0 59753 24300.00000 0 1869217.869 -22376774.101 12139010.793 10 0 59753 25200.00000 0 2143489.547 -23668862.533 9294236.946 10 0 59753 26100.00000 0 2237431.033 -24627143.342 6269138.439 10 0 59753 27000.00000 0 2195805.569 -25215916.889 3122297.680 10 0 59753 27900.00000 0 2069342.708 -25411329.421 -85227.601 10 0 59753 28800.00000 0 1912352.233 -25202392.007 -3291086.497 10 0 59753 29700.00000 0 1780179.892 -24591480.608 -6432851.336 10 0 59753 30600.00000 0 1726613.274 -23594293.258 -9449244.116 10 0 59753 31500.00000 0 1801349.167 -22239263.244 -12281347.777 10 0 59753 32400.00000 0 2047631.995 -20566450.608 -14873776.993 10 0 59753 33300.00000 0 2500166.274 -18625956.841 -17175783.588 10 0 59753 34200.00000 0 3183394.700 -16475928.586 -19142272.675 10 0 59753 35100.00000 0 4110218.051 -14180234.208 -20734707.526 10 0 59753 36000.00000 0 5281214.091 -11805911.530 -21921883.494 10 0 59753 36900.00000 0 6684391.052 -9420495.190 -22680554.138 10 0 59753 37800.00000 0 8295488.002 -7089337.367 -22995896.109 10 0 59753 38700.00000 0 10078810.625 -4873035.809 -22861802.964 10 0 59753 39600.00000 0 11988567.465 -2825078.436 -22281001.859 10 0 59753 40500.00000 0 13970650.025 -989804.054 -21264991.148 10 0 59753 41400.00000 0 15964780.870 599235.247 -19833800.766 10 0 59753 42300.00000 0 17906937.934 1920442.003 -18015581.237 10 0 59753 43200.00000 0 19731951.640 2964824.276 -15846030.810 10 0 59753 44100.00000 0 21376164.194 3736104.686 -13367673.595 10 0 59753 45000.00000 0 22780038.162 4250286.093 -10629004.795 10 0 59753 45900.00000 0 23890604.110 4534695.850 -7683521.608 10 0 59753 46800.00000 0 24663644.546 4626552.642 -4588660.633 10 0 59753 47700.00000 0 25065523.172 4571119.977 -1404664.248 10 0 59753 48600.00000 0 25074584.107 4419527.449 1806600.584 10 0 59753 49500.00000 0 24682064.389 4226354.291 4982847.176 10 0 59753 50400.00000 0 23892483.884 4047078.921 8062573.713 10 0 59753 51300.00000 0 22723498.822 3935502.889 10986244.422 10 0 59753 52200.00000 0 21205227.449 3941257.767 13697425.253 10 0 59753 53100.00000 0 19379077.963 4107499.135 16143853.366 10 0 59753 54000.00000 0 17296128.972 4468883.245 18278421.710 10 0 59753 54900.00000 0 15015130.377 5049909.689 20060061.944 10 0 59753 55800.00000 0 12600207.519 5863697.861 21454511.050 10 0 59753 56700.00000 0 10118362.618 6911247.118 22434949.362 10 0 59753 57600.00000 0 7636875.089 8181210.821 22982499.935 10 0 59753 58500.00000 0 5220705.948 9650193.665 23086581.363 10 0 59753 59400.00000 0 2930010.897 11283560.820 22745108.496 10 0 59753 60300.00000 0 817862.150 13036726.899 21964537.610 10 0 59753 61200.00000 0 -1071729.114 14856873.501 20759754.848 10 0 59753 62100.00000 0 -2705409.788 16685026.770 19153808.999 10 0 59753 63000.00000 0 -4061636.397 18458411.594 17177491.958 10 0 59753 63900.00000 0 -5131333.723 20112987.269 14868772.722 10 0 59753 64800.00000 0 -5918032.831 21586061.418 12272093.210 10 0 59753 65700.00000 0 -6437481.737 22818874.762 9437536.767 10 0 59753 66600.00000 0 -6716743.530 23759049.457 6419882.982 10 0 59753 67500.00000 0 -6792818.148 24362798.212 3277564.880 10 0 59753 68400.00000 0 -6710844.198 24596800.337 71547.094 10 0 59753 69300.00000 0 -6521955.331 24439663.721 -3135854.061 10 0 59753 70200.00000 0 -6280881.100 23882908.503 -6282185.910 10 0 59753 71100.00000 0 -6043393.857 22931427.859 -9306085.958 10 0 59753 72000.00000 0 -5863710.730 21603403.278 -12148494.488 10 0 59753 72900.00000 0 -5791962.474 19929674.964 -14753827.887 10 0 59753 73800.00000 0 -5871838.876 17952591.454 -17071087.789 10 0 59753 74700.00000 0 -6138513.315 15724385.239 -19054882.062 10 0 59753 75600.00000 0 -6616937.428 13305141.877 -20666335.557 10 0 59753 76500.00000 0 -7320581.056 10760447.919 -21873870.790 10 0 59753 77400.00000 0 -8250673.342 8158817.165 -22653841.587 10 0 59753 78300.00000 0 -9395979.118 5569004.408 -22991006.069 10 0 59753 79200.00000 0 -10733121.359 3057320.699 -22878828.926 10 0 59753 80100.00000 0 -12227436.619 685064.077 -22319606.816 10 0 59753 81000.00000 0 -13834327.172 -1493825.613 -21324414.650 10 0 59753 81900.00000 0 -15501052.014 -3434789.144 -19912874.521 10 0 59753 82800.00000 0 -17168879.852 -5104263.111 -18112752.880 10 0 59753 83700.00000 0 -18775511.779 -6480821.395 -15959395.320 10 0 59753 84600.00000 0 -20257669.929 -7555797.130 -13495011.678 10 0 59753 85500.00000 0 -21553741.594 -8333361.783 -10767827.365 10 0 59754 0.00000 0 -22606366.344 -8830061.494 -7831119.706 10 0 59754 900.00000 0 -23364857.299 -9073834.174 -4742158.349 10 0 59754 1800.00000 0 -23787353.464 -9102551.936 -1561076.172 10 0 59754 2700.00000 0 -23842615.387 -8962154.797 1650311.176 10 0 59754 3600.00000 0 -23511388.715 -8704456.651 4829709.289 10 0 59754 4500.00000 0 -22787280.953 -8384718.637 7915550.166 10 0 59754 5400.00000 0 -21677116.808 -8059093.574 10848175.060 10 0 59754 6300.00000 0 -20200759.461 -7782049.614 13570972.880 10 0 59754 7200.00000 0 -18390407.187 -7603881.138 16031453.369 10 0 59754 8100.00000 0 -16289396.146 -7568410.431 18182236.236 10 0 59754 9000.00000 0 -13950559.882 -7710975.034 19981939.411 10 0 59754 9900.00000 0 -11434213.694 -8056783.312 21395951.650 10 0 59754 10800.00000 0 -8805846.502 -8619705.407 22397077.127 10 0 59754 11700.00000 0 -6133614.092 -9401548.819 22966041.794 10 0 59754 12600.00000 0 -3485735.115 -10391848.219 23091853.544 10 0 59754 13500.00000 0 -927894.729 -11568178.423 22772010.488 10 0 59754 14400.00000 0 1479239.770 -12896978.531 22012553.796 10 0 59754 15300.00000 0 3682291.285 -14334854.688 20827963.800 10 0 59754 16200.00000 0 5637141.548 -15830309.669 19240900.315 10 0 59754 17100.00000 0 7310516.247 -17325830.048 17281790.394 10 0 59754 18000.00000 0 8681121.667 -18760246.771 14988269.259 10 0 59754 18900.00000 0 9740285.748 -20071273.220 12404482.563 10 0 59754 19800.00000 0 10492076.200 -21198116.760 9580260.752 10 0 59754 20700.00000 0 10952889.436 -22084055.609 6570178.982 10 0 59754 21600.00000 0 11150525.983 -22678873.289 3432518.607 10 0 59754 22500.00000 0 11122789.526 -22941047.626 228148.671 10 0 59754 23400.00000 0 10915666.998 -22839600.472 -2980651.744 10 0 59754 24300.00000 0 10581165.504 -22355527.713 -6131407.714 10 0 59754 25200.00000 0 10174897.045 -21482746.164 -9162675.056 10 0 59754 26100.00000 0 9753513.646 -20228514.042 -12015254.208 10 0 59754 27000.00000 0 9372102.632 -18613303.972 -14633366.052 10 0 59754 27900.00000 0 9081654.321 -16670130.898 -16965764.718 10 0 59754 28800.00000 0 8926711.840 -14443360.923 -18966763.357 10 0 59754 29700.00000 0 8943305.337 -11987049.640 -20597150.668 10 0 59754 30600.00000 0 9157260.875 -9362879.101 -21824978.281 10 0 59754 31500.00000 0 9582958.062 -6637780.200 -22626201.838 10 0 59754 32400.00000 0 10222591.084 -3881340.946 -22985162.007 10 0 59754 33300.00000 0 11065965.768 -1163110.381 -22894895.227 10 0 59754 34200.00000 0 12090841.932 1450087.527 -22357267.775 10 0 59754 35100.00000 0 13263806.472 3896716.426 -21382930.785 10 0 59754 36000.00000 0 14541639.528 6122858.575 -19991097.717 10 0 59754 36900.00000 0 15873114.711 8084216.462 -18209149.735 10 0 59754 37800.00000 0 17201155.657 9747701.969 -16072078.163 10 0 59754 38700.00000 0 18465256.065 11092548.023 -13621776.549 10 0 59754 39600.00000 0 19604059.262 12110898.393 -10906198.134 10 0 59754 40500.00000 0 20557987.022 12807854.025 -7978397.109 10 0 59754 41400.00000 0 21271805.780 13200977.568 -4895474.226 10 0 59754 42300.00000 0 21697021.681 13319280.692 -1717449.156 10 0 59754 43200.00000 0 21794003.904 13201740.697 1493917.061 10 0 59754 44100.00000 0 21533747.847 12895412.234 4676325.580 10 0 59754 45000.00000 0 20899205.583 12453216.502 7768145.367 10 0 59754 45900.00000 0 19886129.573 11931502.988 10709597.649 10 0 59754 46800.00000 0 18503396.309 11387487.413 13443896.961 10 0 59754 47700.00000 0 16772798.215 10876673.742 15918327.978 10 0 59754 48600.00000 0 14728314.000 10450367.801 18085239.190 10 0 59754 49500.00000 0 12414888.713 10153385.402 19902936.476 10 0 59754 50400.00000 0 9886774.413 10022049.177 21336461.715 10 0 59754 51300.00000 0 7205499.584 10082556.010 22358243.921 10 0 59754 52200.00000 0 4437549.875 10349781.555 22948612.588 10 0 59754 53100.00000 0 1651853.963 10826570.484 23096165.176 10 0 59754 54000.00000 0 -1082824.289 11503541.515 22797982.914 10 0 59754 54900.00000 0 -3700482.649 12359415.633 22059691.294 10 0 59754 55800.00000 0 -6140361.858 13361854.898 20895363.822 10 0 59754 56700.00000 0 -8349211.591 14468778.764 19327269.886 10 0 59754 57600.00000 0 -10283249.297 15630105.414 17385469.856 10 0 59754 58500.00000 0 -11909731.998 16789848.083 15107262.993 10 0 59754 59400.00000 0 -13208076.247 17888481.420 12536496.250 10 0 59754 60300.00000 0 -14170479.328 18865481.131 9722744.553 10 0 59754 61200.00000 0 -14802014.677 19661932.051 6720375.925 10 0 59754 62100.00000 0 -15120196.039 20223095.883 3587517.308 10 0 59754 63000.00000 0 -15154026.851 20500830.391 384939.419 10 0 59754 63900.00000 0 -14942573.054 20455756.854 -2825118.593 10 0 59754 64800.00000 0 -14533118.080 20059082.232 -5980162.176 10 0 59754 65700.00000 0 -13978976.979 19293996.221 -9018667.997 10 0 59754 66600.00000 0 -13337061.937 18156580.846 -11881299.043 10 0 59754 67500.00000 0 -12665302.781 16656190.696 -14512082.904 10 0 59754 68400.00000 0 -12020033.033 14815284.370 -16859528.196 10 0 59754 69300.00000 0 -11453454.170 12668711.424 -18877655.071 10 0 59754 70200.00000 0 -11011287.812 10262482.609 -20526917.516 10 0 59754 71100.00000 0 -10730717.783 7652073.755 -21774997.406 10 0 59754 72000.00000 0 -10638711.506 4900334.054 -22597453.011 10 0 59754 72900.00000 0 -10750793.811 2075086.734 -22978208.038 10 0 59754 73800.00000 0 -11070326.411 -753476.545 -22909870.796 10 0 59754 74700.00000 0 -11588324.293 -3515497.177 -22393876.939 10 0 59754 75600.00000 0 -12283816.720 -6144132.759 -21440453.163 10 0 59754 76500.00000 0 -13124736.859 -8578108.616 -20068403.232 10 0 59754 77400.00000 0 -14069301.021 -10764030.338 -18304721.573 10 0 59754 78300.00000 0 -15067817.397 -12658360.723 -16184043.425 10 0 59754 79200.00000 0 -16064845.763 -14228979.314 -13747943.955 10 0 59754 80100.00000 0 -17001614.760 -15456260.901 -11044101.930 10 0 59754 81000.00000 0 -17818592.731 -16333630.383 -8125346.236 10 0 59754 81900.00000 0 -18458102.035 -16867573.942 -5048605.698 10 0 59754 82800.00000 0 -18866865.527 -17077109.639 -1873784.513 10 0 59754 83700.00000 0 -18998377.539 -16992743.525 1337413.397 10 0 59754 84600.00000 0 -18814999.827 -16654958.770 4522687.236 10 0 59754 85500.00000 0 -18289695.283 -16112304.509 7620345.396 99